Location: La Chapelle
(49.1284°N, 2.5341°E)
Time: 01:33:50
(UTC+00:00)

Daily predictions for brighter satellites

Satellite Brightness Start Highest point End
(mag) Time Altitude Azimuth Time Altitude Azimuth Time Altitude Azimuth
ACS3 Solar Sail 4.0 02:01:14 10° NE 02:03:45 18° ENE 02:03:45 18° ENE
ADEOS Rocket 4.3 02:33:42 10° NNE 02:38:45 41° ENE 02:38:45 41° ENE
BREEZE-M DEB (TANK) 4.5 02:53:28 78° SE 02:53:28 78° SE 03:13:10 10° ESE
Cosmos 2219 Rocket 3.9 02:55:06 30° ENE 02:55:06 30° ENE 02:58:37 10° NE
USA 267 3.4 03:14:12 10° ENE 03:20:18 67° ESE 03:20:18 67° ESE
USA 238 DEB 4.3 03:33:04 43° N 03:33:04 43° N 03:38:29 10° NE
H-2A R/B 4.1 03:26:46 10° NNE 03:28:05 18° NNE 03:28:05 18° NNE
USA 238 4.3 03:33:10 44° N 03:33:10 44° N 03:38:36 10° NE
Cosmos 2278 Rocket 3.8 03:29:48 21° N 03:32:26 30° NE 03:37:22 10° ESE
Cosmos 2333 Rocket 3.4 03:39:30 34° N 03:39:30 34° N 03:42:50 10° NNE
COSMOS 2455 3.3 03:45:06 51° N 03:45:06 51° N 03:49:49 10° NNE
ADEOS II 4.3 03:39:03 10° N 03:39:55 15° N 03:39:55 15° N
Lacrosse 5 rocket 4.0 03:46:58 13° NE 03:46:58 13° NE 03:47:21 10° NE
Cosmos 2298 Rocket 4.5 03:46:57 57° NE 03:46:57 57° NE 03:51:14 10° NNE
ACS3 Solar Sail 2.1 03:43:18 10° N 03:47:53 53° N 03:47:53 53° N
BlueWalker 3 4.2 03:53:51 21° ESE 03:53:51 21° ESE 03:55:07 10° ESE
CENTAUR R/B 4.3 03:52:18 22° NNW 03:55:36 30° NNE 04:03:00 10° ENE
Cosmos 2360 Rocket 2.9 03:59:09 41° N 03:59:09 41° N 04:03:11 10° NNE
Cosmos 2322 Rocket 3.1 03:59:31 37° N 03:59:31 37° N 04:03:22 10° NNE
USA 234 3.1 03:51:49 10° SE 03:58:21 69° SW 03:58:53 66° WSW
Gbstr 26 Del rocket 4.2 03:59:16 40° SSE 03:59:47 41° SE 04:05:05 10° ENE
SL-16 R/B 3.6 04:06:02 24° NNW 04:06:02 24° NNW 04:09:06 10° NNE
Cosmos 44 Rocket 3.5 04:05:02 70° NNE 04:05:23 73° NE 04:10:32 10° SE
Cosmos 1943 Rocket 2.9 04:06:17 22° NNW 04:09:41 50° NE 04:15:02 10° SE
Meteor 2-14 Rocket 4.5 04:05:44 10° S 04:11:49 79° E 04:17:55 10° NNE
Okean 1-7 3.8 04:13:10 43° NNE 04:13:10 43° NNE 04:16:05 10° NNE
H-2A R/B 4.4 04:08:44 10° NNE 04:11:15 38° NE 04:11:15 38° NE
NOSS 2-1 (C) 4.5 04:14:58 34° E 04:14:58 34° E 04:17:11 10° ENE
ARGOS 3.0 04:09:41 10° NNE 04:15:08 79° WNW 04:16:17 56° SW
PAYLOAD A 4.1 04:10:31 10° NNE 04:15:58 81° ESE 04:20:30 15° SSW
Cosmos 1908 Rocket 4.4 04:11:47 10° N 04:16:07 49° ENE 04:20:25 10° SSE
Cosmos 1140 Rocket 3.5 04:15:55 38° NNW 04:17:56 78° ENE 04:23:02 10° SSE
NOSS 2-1 (D) 4.3 04:19:05 37° E 04:19:05 37° E 04:21:16 10° NE
Timation 2 Rocket 4.2 04:14:49 20° NNW 04:19:42 77° ENE 04:26:08 10° SE
CZ-2C R/B 2.3 04:15:28 10° NNE 04:20:28 79° WNW 04:21:33 56° SW
Cosmos 1809 Rocket 4.3 04:17:38 10° SSW 04:23:45 83° W 04:29:52 10° N
ADEOS Rocket 3.5 04:19:23 10° N 04:25:24 43° WNW 04:25:40 43° WNW
NOSS 3-1 (C) 3.0 04:27:25 40° SSW 04:29:09 75° SE 04:34:51 10° NE
Iridium 4 Rocket 4.1 04:27:17 10° N 04:31:31 45° E 04:35:31 10° SSE
SJ 16-02 3.9 04:28:45 10° N 04:31:43 18° NE 04:34:40 10° E
Cosmos 2100 Rocket 3.8 04:25:46 10° NNW 04:31:56 79° W 04:38:05 10° S
Cosmos 2219 Rocket 2.5 04:36:49 44° WNW 04:37:19 45° NW 04:42:48 10° NNE
SL-24 R/B - RUBIN 2 4.0 04:39:22 48° W 04:40:15 55° NW 04:45:04 10° NNE
IRS-1D 4.1 04:35:36 10° NNE 04:40:30 55° E 04:45:20 10° S
TIMED 4.3 04:40:17 37° NNW 04:41:57 90° SW 04:46:12 10° SSE
NOSS 0 Rocket 4.5 04:37:40 10° S 04:43:41 59° ESE 04:49:43 10° NE
COSMOS 2428 2.6 04:41:30 11° SSW 04:47:06 89° WNW 04:52:50 10° NNE
USA 59 Rocket -0.8 04:50:48 69° N 04:50:48 69° N 04:53:33 10° NE
SL-08 RB Rocket 3.8 04:47:38 10° N 04:52:03 49° WNW 04:53:29 35° WSW
Cosmos 1459 Rocket 4.0 04:46:50 10° NNW 04:53:07 63° W 04:59:21 10° S
Cosmos 1864 Rocket 4.4 04:47:45 10° NNW 04:54:03 79° W 05:00:22 10° S
Cosmos 2322 3.6 04:50:01 16° SW 04:54:34 71° WNW 05:00:16 10° NNE
FengYun 1-2 T 4.2 04:51:30 10° NNE 04:57:05 85° WNW 05:02:41 10° SSW
COSMO-SKYMED 1 2.8 04:54:49 10° SSE 04:58:54 66° ENE 05:03:01 10° N
Meteor 2-21 4.4 04:53:25 10° SSW 04:59:26 62° WNW 05:05:28 10° N
Cosmos 407 Rocket 3.4 04:54:47 10° NNW 04:59:53 89° WSW 05:05:00 10° SSE
SKYMED 2 3.5 04:55:51 10° SSE 05:00:12 88° WSW 05:04:35 10° NNW
Cosmos 1727 Rocket 4.2 04:56:12 10° SW 05:02:04 44° WNW 05:08:02 10° N
Cosmos 2228 Rocket 3.7 05:03:28 33° WNW 05:03:28 33° WNW 05:07:14 10° N
Cosmos 1725 Rocket 3.9 04:57:15 10° NNW 05:03:36 75° W 05:09:53 10° S
USA 267 3.4 04:57:20 10° ENE 05:03:43 58° NNW 05:07:39 24° W
Cosmos 1980 4.2 05:01:20 10° SSW 05:06:54 64° ESE 05:12:31 10° NNE
H-2A R/B 3.9 05:07:42 10° NNW 05:08:34 12° NNW 05:08:34 12° NNW
Cosmos 1802 Rocket 4.0 05:05:11 10° NNW 05:11:28 60° W 05:17:36 10° S
NOSS 3-1 (A) 3.3 05:08:38 10° SSW 05:13:18 68° SE 05:18:59 10° NE
Cosmos 2233 Rocket 4.0 05:08:28 10° N 05:14:50 87° W 05:21:07 10° S
Cosmos 1328 3.9 05:12:48 10° SSW 05:16:16 42° WNW 05:19:46 10° N
Cosmos 2278 Rocket 2.2 05:11:40 12° NW 05:16:52 59° WSW 05:22:24 10° S
Cosmos 1703 Rocket 3.6 05:13:23 10° SSW 05:17:39 55° WNW 05:21:59 10° N
Cosmos 2251 Rocket 3.7 05:13:22 10° NNW 05:18:44 77° ENE 05:24:06 10° SSE
NOSS 2-1 (E) 2.9 05:18:52 27° WSW 05:20:24 52° NW 05:23:24 10° NNE
CZ-3 R/B 4.2 05:16:13 10° SSW 05:20:33 13° S 05:23:38 10° SSE
Cosmos 1939 Rocket 3.5 05:17:52 10° N 05:21:19 31° WNW 05:23:42 16° WSW
Lacrosse 5 rocket 2.5 05:20:39 19° NNW 05:21:42 22° N 05:24:25 10° NE
Meteor 2-16 Rocket 4.4 05:15:58 10° SSW 05:22:01 67° WNW 05:28:09 10° N
Cosmos 2173 Rocket 4.4 05:16:50 10° NNW 05:22:17 36° W 05:27:43 10° SSW
Cosmos 2333 Rocket 3.8 05:21:32 15° NW 05:22:48 16° NNW 05:26:16 10° N
Cosmos 2237 Rocket 2.4 05:17:30 10° SSW 05:23:09 77° ESE 05:28:49 10° NNE
USA-17 4.1 05:22:08 25° NW 05:23:50 85° SW 05:27:11 10° SE
SL-08 R/B 4.4 05:19:39 10° NNW 05:25:41 63° W 05:31:45 10° S
Cosmos 2292 Rocket 3.7 05:23:53 10° SSW 05:28:06 65° WNW 05:33:36 10° N
BlueWalker 3 3.2 05:27:40 20° WSW 05:28:45 23° SW 05:31:40 10° SSE
USA 276 3.9 05:29:39 14° SW 05:29:53 14° SW 05:31:22 10° S
COSMOS 2455 4.2 05:28:15 16° WNW 05:30:53 21° NNW 05:35:26 10° NNE
ACS3 Solar Sail 3.2 05:27:55 10° NNW 05:31:20 16° NW 05:32:02 16° WNW
Meteor 1-24 Rocket 3.9 05:27:17 10° SSW 05:32:50 48° WNW 05:38:14 10° N
Helios 1A Rocket 3.1 05:30:17 10° SSW 05:33:24 34° W 05:36:22 11° NNW
Cosmos 2242 Rocket 4.5 05:29:57 10° S 05:34:11 53° E 05:38:29 10° NNE
Cosmos 2369 Rocket 3.6 05:29:19 10° NNW 05:34:33 36° NE 05:39:46 10° ESE
CZ-4 R/B 4.0 05:31:04 10° N 05:35:52 54° WNW 05:40:34 10° SW
Cosmos 1782 Rocket 3.7 05:33:43 10° NNW 05:37:58 48° W 05:42:11 10° SSW
USA 234 4.5 05:37:17 10° S 05:42:10 22° SW 05:46:14 13° W
Cosmos 2360 Rocket 3.9 05:40:55 13° NW 05:42:58 15° NNW 05:46:10 10° N
Cosmos 2322 Rocket 4.0 05:41:21 12° NW 05:43:23 14° NNW 05:46:19 10° N
Cosmos 2123 Rocket 4.3 05:37:47 10° SW 05:43:36 41° WNW 05:49:25 10° N
Meteor 2-5 Rocket 4.1 05:38:24 10° SW 05:44:02 45° WNW 05:49:39 10° N
NOAA 12 4.2 05:39:57 10° N 05:45:09 54° WNW 05:50:19 10° SW
Cosmos 1420 Rocket 4.1 05:40:02 10° SSW 05:45:18 87° ESE 05:50:38 10° NNE
Gbstr 26 Del rocket 3.6 05:41:19 12° WSW 05:46:03 80° NNW 05:52:24 10° ENE
CENTAUR R/B 3.8 05:40:15 10° NW 05:48:00 55° NE 05:57:03 10° ESE
SL-16 R/B 4.3 05:49:54 10° NNW 05:50:17 10° NNW 05:50:41 10° NNW
ARIANE 5 R/B 4.4 05:46:01 10° NNE 05:50:37 35° E 05:55:15 10° SSE
Cosmos 1943 Rocket 3.0 05:48:25 10° NW 05:53:10 30° WSW 05:57:53 10° SSW
Cosmos 1812 2.1 05:54:04 10° N 05:57:00 79° ENE 05:59:55 10° SSE
CZ-2C R/B 4.1 05:55:10 10° NNW 05:57:46 14° NW 06:00:23 10° W
Cosmos 1300 Rocket 4.4 05:54:38 10° NNW 05:58:20 27° W 06:01:59 10° SSW
SMAP 4.1 05:54:58 10° NNE 05:59:31 51° E 06:04:02 10° S
Cosmos 2346 Rocket 4.4 05:56:04 10° SSW 06:02:11 68° WNW 06:08:18 10° N
CZ-2D R/B 4.5 05:59:11 10° NNE 06:02:12 38° E 06:05:11 10° S
NOSS 2-1 (C) 4.2 06:00:52 11° W 06:03:13 20° NW 06:05:33 10° NNE
NOSS 2-1 (D) 4.3 06:04:57 10° W 06:07:15 18° NNW 06:09:26 10° NNE
SJ 16-02 1.3 06:06:01 10° NNW 06:10:19 65° WSW 06:14:32 10° S
Iridium 4 Rocket 4.4 06:07:51 10° NNW 06:10:53 19° WNW 06:13:47 10° WSW
Aureole 3 Rocket 3.5 06:07:10 10° NNW 06:11:19 60° W 06:17:02 10° S
Okean 1 Rocket 4.1 06:07:24 10° N 06:11:39 48° ENE 06:15:49 10° SSE
Cosmos 2061 Rocket 4.5 06:08:22 10° NNW 06:13:59 37° W 06:19:34 10° SSW
CBERS-1 4.0 06:10:12 10° NNE 06:15:19 72° WNW 06:20:24 10° SSW
